FW0633 Weather Reports


Display with metric or nautical units.
time (UTC)temp
F
wind
direction
speed
MPH
gust
MPH
rain 1hr
in
rain 24hr
in
rain mn
in
humidity
%
barometer
mb
20260901160026 76 160 2.0 6.0 0.00 0.00 0.00 63 1040.2
20260901154504 75 114 2.0 6.0 0.00 0.00 0.00 66 1040.1
20260901153005 75 226 1.0 2.0 0.00 0.00 0.00 64 1040.2
20260901151505 74 176 0.0 2.0 0.00 0.00 0.00 64 1040.2
20260901150004 73 101 0.0 1.0 0.00 0.00 0.00 62 1040.2
20260901144504 71 107 0.0 1.0 0.00 0.00 0.00 67 1040.2
20260901143026 67 0 0.0 0.0 0.00 0.00 0.00 75 1040.1
20260901141504 64 0 0.0 0.0 0.00 0.00 0.00 81 1040.0
20260901140004 60 229 0.0 1.0 0.00 0.00 0.00 85 1040.1
20260901134504 58 229 0.0 1.0 0.00 0.00 0.00 87 1040.0
20260901133004 57 0 0.0 0.0 0.00 0.00 0.00 89 1040.0
20260901131505 57 250 0.0 1.0 0.00 0.00 0.00 89 1039.8
20260901130004 57 282 0.0 1.0 0.00 0.00 0.00 89 1039.8
20260901124505 57 282 0.0 1.0 0.00 0.00 0.00 89 1039.7
20260901123004 57 282 0.0 1.0 0.00 0.00 0.00 89 1039.6
20260901121504 57 282 0.0 1.0 0.00 0.00 0.00 88 1039.6
20260901120005 57 282 0.0 1.0 0.00 0.00 0.00 88 1039.5
20260901114525 57 282 0.0 1.0 0.00 0.00 0.00 88 1039.4
20260901113004 57 271 0.0 1.0 0.00 0.00 0.00 89 1039.4
20260901111504 56 0 0.0 0.0 0.00 0.00 0.00 90 1039.3
20260901110025 56 271 0.0 1.0 0.00 0.00 0.00 90 1039.3
20260901104504 56 268 0.0 1.0 0.00 0.00 0.00 90 1039.3
20260901103004 56 0 0.0 0.0 0.00 0.00 0.00 90 1039.4
20260901101504 57 0 0.0 0.0 0.00 0.00 0.00 87 1039.4
20260901100003 57 0 0.0 0.0 0.00 0.00 0.00 87 1039.4
20260901094525 57 268 0.0 1.0 0.00 0.00 0.00 87 1039.4
20260901093005 58 268 0.0 1.0 0.00 0.00 0.00 87 1039.5
20260901091504 58 268 0.0 1.0 0.00 0.00 0.00 87 1039.4
20260901090004 57 262 0.0 1.0 0.00 0.00 0.00 88 1039.6
20260901084524 57 239 0.0 1.0 0.00 0.00 0.00 89 1039.6
20260901083024 57 0 0.0 0.0 0.00 0.00 0.00 88 1039.5
20260901081503 58 0 0.0 0.0 0.00 0.00 0.00 87 1039.6
20260901080024 58 0 0.0 0.0 0.00 0.00 0.00 87 1039.6
20260901074524 58 0 0.0 0.0 0.00 0.00 0.00 87 1039.5
20260901073003 59 0 0.0 0.0 0.00 0.02 0.00 86 1039.6
20260901071503 59 0 0.0 0.0 0.00 0.02 0.00 87 1039.6
20260901070003 60 0 0.0 0.0 0.00 0.02 0.00 85 1039.4
20260901064503 60 238 0.0 1.0 0.00 0.02 0.02 85 1039.5
20260901063004 60 0 0.0 0.0 0.00 0.02 0.02 85 1039.5
20260901061503 60 0 0.0 0.0 0.00 0.02 0.02 85 1039.4
20260901060004 61 239 0.0 1.0 0.00 0.02 0.02 84 1039.4
20260901054503 61 221 0.0 1.0 0.00 0.02 0.02 84 1039.4
20260901053003 62 0 0.0 0.0 0.00 0.02 0.02 84 1039.4
20260901051524 63 0 0.0 0.0 0.00 0.02 0.02 83 1039.3
20260901050024 63 0 0.0 0.0 0.00 0.02 0.02 82 1039.4
20260901044505 64 0 0.0 0.0 0.00 0.02 0.02 80 1039.3
20260901043003 65 160 0.0 3.0 0.00 0.02 0.02 77 1039.2
20260901041506 64 162 0.0 1.0 0.00 0.02 0.02 81 1039.0
20260901040006 65 0 0.0 0.0 0.00 0.02 0.02 80 1038.8
20260901034505 66 0 0.0 0.0 0.00 0.02 0.02 78 1038.7
20260901033006 68 0 0.0 0.0 0.00 0.02 0.02 74 1038.6
20260901031527 68 0 0.0 0.0 0.00 0.02 0.02 73 1038.3
20260901030005 69 99 0.0 1.0 0.00 0.02 0.02 71 1038.2
20260901024506 70 0 0.0 0.0 0.00 0.02 0.02 69 1038.0
20260901023005 70 0 0.0 0.0 0.00 0.02 0.02 69 1037.8
20260901021526 71 131 1.0 3.0 0.00 0.02 0.02 68 1037.8
20260901020007 71 117 1.0 2.0 0.00 0.02 0.02 67 1037.8
20260901014527 71 121 2.0 6.0 0.00 0.02 0.02 67 1037.8
20260901013026 71 118 2.0 5.0 0.00 0.02 0.02 66 1037.8
20260901011506 72 118 2.0 6.0 0.00 0.02 0.02 66 1037.8
20260901010005 72 123 4.0 8.0 0.00 0.02 0.02 65 1037.8
20260901004505 72 123 3.0 6.0 0.00 0.02 0.02 66 1037.9
20260901003006 72 116 3.0 7.0 0.00 0.02 0.02 66 1038.0
20260901001505 73 121 6.0 12.0 0.00 0.02 0.02 65 1037.8
20260901000005 73 110 5.0 12.0 0.00 0.02 0.02 66 1037.9
20260831234505 73 119 5.0 10.0 0.00 0.02 0.02 66 1038.3
20260831233005 73 108 4.0 7.0 0.00 0.02 0.02 65 1038.3
20260831231505 74 100 4.0 9.0 0.00 0.02 0.02 65 1038.4
20260831230005 74 92 3.0 9.0 0.00 0.02 0.02 62 1038.4
20260831224505 74 105 4.0 9.0 0.00 0.02 0.02 62 1038.2
20260831223026 75 101 6.0 10.0 0.00 0.02 0.02 60 1038.1
20260831221505 75 95 6.0 11.0 0.00 0.02 0.02 61 1038.2
20260831220027 75 108 6.0 10.0 0.00 0.02 0.02 60 1038.2
20260831214505 76 113 6.0 16.0 0.00 0.02 0.02 58 1038.4
20260831213005 76 114 6.0 12.0 0.00 0.02 0.02 61 1038.6
20260831211505 76 119 8.0 13.0 0.00 0.02 0.02 61 1038.9
20260831210005 76 99 7.0 13.0 0.00 0.02 0.02 61 1039.1
20260831204526 78 119 5.0 12.0 0.00 0.02 0.02 58 1039.3
20260831203005 83 212 1.0 5.0 0.00 0.02 0.02 49 1039.5
20260831201505 80 186 1.0 4.0 0.00 0.02 0.02 53 1039.6
20260831200026 77 111 4.0 10.0 0.00 0.02 0.02 59 1039.7
20260831194505 75 119 5.0 12.0 0.00 0.02 0.02 63 1040.1
20260831193005 75 114 5.0 9.0 0.00 0.02 0.02 64 1040.3
20260831191505 73 107 6.0 11.0 0.00 0.02 0.02 67 1040.4
20260831190005 73 121 5.0 11.0 0.00 0.02 0.02 67 1040.7
20260831184505 74 111 6.0 12.0 0.00 0.02 0.02 66 1040.7
20260831183025 73 119 6.0 11.0 0.00 0.02 0.02 65 1040.7
20260831181505 73 103 6.0 14.0 0.00 0.02 0.02 66 1040.6
20260831180005 72 114 7.0 13.0 0.00 0.02 0.02 68 1040.6
20260831174504 71 114 7.0 15.0 0.00 0.02 0.02 70 1040.5
20260831173005 70 124 8.0 14.0 0.00 0.02 0.02 72 1040.5
20260831171504 69 127 6.0 14.0 0.00 0.02 0.02 75 1040.4
20260831170025 69 121 4.0 9.0 0.00 0.02 0.02 72 1040.4
20260831164505 69 121 3.0 11.0 0.00 0.02 0.02 72 1040.3
20260831163004 70 129 6.0 14.0 0.00 0.02 0.02 68 1039.9
20260831161504 71 126 8.0 14.0 0.00 0.02 0.02 66 1039.8